ATLAS 5 CENTAUR R/B, 40375

Orbit data source: Space-Track

ATLAS 5 CENTAUR R/B, 40375 is space debris in HEO originally from a launch on Wed, 21 Jan 2015 UTC launched from the Air Force Eastern Test Range (AFETR). Debris objects in space refer to the collection of defunct objects orbiting the Earth. Examples of debris include non-operational satellites, rocket bodies, and fragments generated from explosions, collisions, or faulty payload assembly.

Loading next visibility...
ATLAS 5 CENTAUR R/B details
Identifier
40375, 2015-002B
Orbit
HEO
Last TLE update2 days ago
Origin
Flag of USLMSS Denver (US)
ManufacturerLMSS Denver
MissionSpacecraft
Bus & MotorCENTAUR SEC, RL10C-1
Mass~2,020 kg wet, 2,020 kg dry
Launch date (UTC)
2015-01-21 (10 years ago)
Launch vehicleUnknown
Launch site
Air Force Eastern Test Range (AFETR)
Object type
Payload
Rocket body
Debris
Shape & HBRCyl + 1 Nozzle, 11.7 m
Radar Cross Section32.260 m², Large (>1 m²)

Expand to show TLE details & history

TLE from 2 days ago
0 ATLAS 5 CENTAUR R/B
1 40375U 15002B   24338.14946088 -.00000141  00000-0  00000-0 0  9994
2 40375  19.1656  30.0436 6073097 301.7608  12.9720  2.08932610 75332
Epoch: 2024-12-03T03:35Z
Definitive object data (Epoch: 2024-12-03T03:35:13.42Z)
Latitude0.00002°
Longitude-96.25429°
Altitude6,021.601 km
Speed6.991 km/s
True Right ascension02h 00m 03s
True Declination0° 00' 00"
Sunlit
Object was in daylight at TLE epoch
Visualization TLE readout
Latitude18.99499°
Longitude-15.26048°
Altitude23,923.479 km
Speed3.3 km/s
Apparent Right ascension08h 02m 51s
Apparent Declination11° 14' 51"
Sunlit
Object is in daylight
Visualization observer readout
Local Sidereal Time01:24:33
Azimuth75.269° E
Elevation0.001°
Doppler factor1
Orbital elements
Apogee altitude35,169.41 km
Perigee altitude3,772.563 km
Semi-major axis25,849.124 km
Eccentricity0.6073097
Inclination19.1656°
RAAN30.0436°
Arg. of periapsis301.7608°
True anomaly58.22115°
Mean anomaly12.972°
Eccentric anomaly30.77739°
Mean motion0.52225 °/min
BSTARUnknown
Orbital period689.33 mins
Loading maneuver chart data...
Loading historical data...
Loading historical data...
Loading historical data...
Loading historical data...
Loading historical data...
Loading historical data...
Loading historical data...
Other satellites on launch #2 in the year 2015 (2015-01-21 UTC)

ATLAS 5 CENTAUR R/B Visibility forecast

Observer location: undefined°, undefined

Span
Click to sort rows by Start time (UTC) header in descending order
Start Az.
Max El. time (UTC)
Max El. Az.
Max El.
End time (UTC)
End Az.
125 mins2024-12-05 07:37:18.654Z86.544° E2024-12-05 08:49:18.654Z92.583° ESE11.511°2024-12-05 09:42:18.654Z96.737° ESE
|